TITAN 3C TRANSTAGE DEB, 38704

Orbit data source: Space-Track

TITAN 3C TRANSTAGE DEB, 38704 is space debris in GEO originally from a launch on Thu, 26 Sep 1968 UTC launched from the Air Force Eastern Test Range (AFETR). Debris objects in space refer to the collection of defunct objects orbiting the Earth. Examples of debris include non-operational satellites, rocket bodies, and fragments generated from explosions, collisions, or faulty payload assembly.

Not visible in the next 10 days
Identifier
38704, 1968-081AE
Orbit
GEO
Country
Flag of USUS
Related business
Manufacturer
Unknown
Mission
Spacecraft
Bus & Motor
Unknown
Mass
Unknown
Launch date (UTC)
1968-09-26 (58 years ago)
Launch vehicle
Unknown
Launch site
Air Force Eastern Test Range (AFETR)
Object type
Payload
Rocket body
Debris
Shape & HBR
Unknown shape, 1.1 m
Radar Cross Section
Medium (>0.1 m² and <1 m²)

Expand to show TLE details & history
Last TLE update: 1 day ago

TLE from 1 day ago
0 TITAN 3C TRANSTAGE DEB
1 38704U 68081AE  26257.15653763  .00000014  00000-0  00000+0 0  9997
2 38704   4.3360  63.0550 0205136 219.7045 139.0598  1.02193344 76919
Epoch: 2026-09-14T03:45Z
TLE epoch observation values (Epoch: 2026-09-14T03:45:24.851Z)
Latitude
-0.00001°
Longitude
13.82492°
Altitude
35,904.045 km
Speed
3.046 km/s
True Right ascension
04h 13m 16s
True Declination
0° 00' 00"
Sunlit
Object was in daylight at epoch
Visualization orbit readout
Latitude
Unknown
Longitude
Unknown
Altitude
Unknown
Speed
Unknown
Apparent Right ascension
Unknown
Apparent Declination
Unknown
Sunlit
N/A
Visualization observer readout
Local Sidereal Time
05:06:08
Azimuth
Unknown
Elevation
Unknown
Doppler factor
Unknown
Orbital elements
Apogee altitude
36,111.541 km
Perigee altitude
34,403.35 km
Semi-major axis
41,635.583 km
Eccentricity
0.02051
Inclination
4.336°
RAAN
63.055°
Arg. of periapsis
219.7045°
True anomaly
140.57067°
Mean anomaly
139.0598°
Eccentric anomaly
139.81815°
Mean motion
0.25547 °/min
Orbital period
1,409.15 mins
BSTAR
0
Loading maneuver chart data...
Computing Atmospheric mass density...

Documentation

Showing up to 5 results
|